Dewpoint
31 33 33 32 34 40 38 37 38 39 53 63 63 62 63 63 63 64 65 65 65 63 62 61 60 60 59 58 58 57 56 56 53 48 46 43 43 40 41 40 42 55 55
31 33 33 41 42 42 42 41 40 38 39 43 46 61 63 63 64 64 64 64 64 64 63 62 61 60 60 59 59 58 57 56 54 52 46 46 44 41 40 40 39 42 53
33 37 40 42 44 44 45 45 45 41 39 39 41 44 49 61 62 62 62 64 64 63 63 63 62 61 60 59 58 58 57 58 54 53 54 44 44 40 40 39 39 39 43
37 39 41 44 45 45 46 46 46 44 42 42 40 39 41 43 52 55 60 61 62 62 62 62 62 62 60 60 60 59 59 58 56 54 55 51 47 43 42 40 44 45 44
39 41 42 45 46 46 45 44 44 44 44 43 42 41 40 42 43 44 44 45 52 59 62 61 61 61 60 60 60 59 58 59 59 55 54 54 52 49 45 48 43 46 47
40 42 44 44 44 44 44 44 43 43 44 44 44 43 42 42 42 43 44 46 49 54 53 56 59 60 59 60 59 59 59 59 59 59 58 56 52 51 49 46 44 45 46
42 42 42 43 43 43 43 43 43 43 44 45 46 47 47 46 47 47 48 48 49 49 50 52 53 56 58 59 59 58 58 58 59 58 58 57 56 55 54 52 50 44 43
41 42 42 42 43 42 42 41 42 42 42 43 45 46 47 48 48 48 48 48 48 49 50 50 51 52 55 56 57 57 58 59 58 58 56 57 56 56 53 52 50 42 40
41 41 42 42 42 42 41 40 40 40 40 43 44 44 43 43 43 43 44 46 46 48 48 48 49 50 51 53 54 57 55 54 53 53 55 56 56 54 53 52 51 49 44
41 41 41 42 42 41 40 40 39 38 39 41 41 41 40 40 39 38 37 38 40 41 42 44 45 46 46 47 48 48 49 49 51 51 51 48 46 45 45 47 46 47 47
40 40 39 40 41 40 39 38 38 38 39 39 39 39 38 38 37 37 36 36 36 36 36 36 36 37 39 40 43 43 43 46 45 44 43 42 42 42 42 43 43 43 43
39 38 38 40 39 38 37 37 38 38 38 38 38 38 37 37 36 36 36 36 35 35 35 35 35 36 36 36 37 39 39 39 39 39 39 39 39 39 39 40 39 40 40
37 36 37 38 38 36 37 37 37 38 37 37 37 37 37 37 37 37 37 37 36 36 36 36 36 36 37 36 36 36 36 37 37 37 37 37 37 37 37 36 36 36 36
36 36 37 37 36 36 37 37 37 37 37 36 36 36 36 37 38 37 37 38 38 38 38 38 37 37 36 36 36 36 36 37 37 37 37 36 36 36 35 35 35 35 34
35 35 36 36 35 36 37 37 37 37 36 36 36 35 36 37 37 37 37 37 37 38 38 37 36 36 36 36 34 35 35 35 35 35 36 38 39 39 37 35 34 34 33
35 34 35 35 35 36 37 37 37 36 36 35 35 35 36 37 37 36 37 37 36 36 36 37 37 36 37 37 38 34 33 34 33 33 33 34 35 36 39 39 38 36 33
34 33 34 34 35 36 36 36 37 36 35 35 35 36 36 36 36 36 35 35 35 35 35 36 37 37 38 38 37 36 32 31 31 30 29 31 32 31 29 30 30 30 31
33 33 32 33 35 36 36 36 37 36 36 35 35 36 36 36 36 35 34 34 33 33 33 33 34 34 33 33 33 33 21 24 26 22 23 22 24 27 27 26 27 26 25
33 32 32 33 34 35 36 36 35 36 36 35 36 35 36 36 35 34 33 33 33 31 26 25 24 24 26 30 30 27 23 22 21 23 25 25 26 29 30 25 24 23 20
32 32 32 33 34 34 35 34 35 35 35 35 35 36 36 36 34 34 34 33 29 25 24 23 24 30 26 30 28 24 21 20 19 20 24 29 27 27 26 22 21 20 20
32 32 32 33 33 34 34 34 35 36 36 35 35 36 36 35 34 34 31 24 20 20 20 24 24 25 26 26 28 28 24 21 21 21 22 24 27 24 23 22 18 19 21
34 33 33 33 34 34 34 34 35 37 36 36 36 35 35 35 34 30 27 26 24 23 22 21 20 21 22 26 25 26 25 24 21 21 22 23 24 21 21 20 20 22 24
35 35 34 34 34 35 34 33 36 36 36 36 35 34 34 32 31 29 28 27 24 19 18 16 13 14 18 21 27 26 27 26 21 22 24 23 23 19 17 20 20 22 19
34 35 34 34 33 34 36 36 37 36 36 34 34 33 32 30 28 22 19 17 14 13 9 9 12 14 18 23 23 22 22 24 23 24 19 19 16 16 16 16 17 18 19
35 35 34 34 34 35 36 36 37 36 35 34 31 30 27 24 16 16 12 13 16 11 8 12 13 15 18 21 24 23 22 22 24 21 16 12 11 14 14 16 18 19 20
36 35 35 35 34 34 35 36 36 35 34 32 27 20 16 16 19 23 23 24 25 24 23 23 19 21 22 23 24 23 23 24 24 18 13 13 15 16 16 16 17 19 20
Lifted_Index
5 6 6 7 7 7 7 6 6 4 2 0 -1 -2 -2 -2 -2 -2 -2 -2 -2 -2 -1 -1 -1 -1 -1 -1 -1 -0 -0 -0 -0 -0 0 0 0 0 0 1 2 2 3
5 6 6 7 7 7 7 7 7 6 5 4 2 1 -0 -1 -2 -2 -2 -2 -2 -2 -1 -1 -1 -1 -1 -1 -1 -1 -0 -0 -0 -0 -0 0 1 0 0 0 1 2 2
5 6 6 6 7 7 7 7 7 7 7 7 6 5 3 2 1 0 -0 -1 -2 -2 -1 -1 -1 -1 -1 -1 -1 -1 -1 -0 -1 -1 -0 0 0 0 0 0 0 1 1
5 6 6 6 6 7 7 7 8 8 8 8 8 8 7 6 5 4 3 2 1 -0 -1 -1 -0 -0 -0 -0 -0 -1 -1 -1 -1 -1 -1 -0 -0 -0 0 0 0 0 0
5 6 6 6 6 7 7 8 8 8 8 9 9 9 9 9 9 8 7 6 5 3 1 -0 -0 -0 -0 -0 -0 -0 -0 -0 -0 -0 -0 -0 -1 -1 -1 -0 -0 -0 -0
5 5 5 6 6 7 7 8 8 8 9 9 10 10 10 10 10 10 10 9 8 6 4 1 0 0 0 0 -0 0 -0 -0 -0 0 0 -0 -0 -1 -1 -1 -0 -0 -0
5 5 5 6 6 7 7 8 8 8 9 9 9 10 10 10 10 10 9 9 9 8 6 4 3 2 1 1 0 0 0 0 1 1 1 1 0 -0 -0 -1 -1 -1 -0
5 5 5 6 6 7 7 8 8 8 9 9 9 9 9 9 9 9 9 9 9 8 8 7 6 4 3 2 1 1 1 1 2 2 2 1 1 0 -0 -1 -1 -1 -0
4 4 5 6 6 7 7 8 8 8 9 9 10 10 10 10 9 9 9 9 9 9 9 9 8 7 6 5 3 3 2 3 3 3 3 3 2 1 0 -0 -1 -1 -1
4 4 5 5 6 7 7 8 8 9 9 10 10 10 10 10 10 10 10 10 10 10 9 9 9 9 8 7 6 5 5 5 5 5 5 5 4 3 2 1 0 -0 -0
4 4 5 5 6 7 7 8 8 9 10 10 10 10 10 10 10 10 10 10 10 10 10 10 10 10 9 9 8 7 7 7 7 7 6 6 5 5 4 3 2 1 1
3 4 4 5 6 6 7 8 8 9 10 10 10 10 10 10 10 10 10 10 10 10 10 11 10 10 10 9 9 9 8 8 8 8 7 7 6 6 5 5 4 3 2
3 4 4 5 6 6 7 8 9 9 10 10 10 10 10 10 10 10 10 10 10 10 11 11 11 10 10 10 9 9 9 9 8 8 8 7 7 6 6 6 5 4 3
4 4 4 5 6 6 7 8 9 9 10 10 10 10 10 10 10 10 10 10 10 10 11 10 10 10 10 10 9 9 9 9 9 8 8 8 7 7 7 7 6 6 5
4 4 4 5 5 6 7 8 9 9 10 10 10 10 10 10 10 10 10 10 10 10 10 10 10 10 10 10 10 10 9 9 9 9 9 9 9 10 10 9 9 8 7
3 3 4 5 5 6 7 8 9 9 10 10 10 10 10 10 10 10 10 10 10 10 10 10 11 11 11 12 12 11 11 10 10 10 10 10 11 12 12 12 11 11 10
3 3 4 4 5 6 7 8 9 9 10 10 10 10 10 10 10 10 10 10 10 11 11 11 11 12 13 14 14 14 14 13 13 13 13 13 14 14 15 14 14 14 14
3 3 4 5 6 7 8 9 9 9 9 9 9 10 10 10 10 11 11 11 11 11 12 13 13 14 15 17 18 18 18 17 17 17 17 17 18 18 18 18 17 18 18
3 3 4 5 6 7 8 8 9 9 9 9 9 10 10 10 10 11 11 12 12 13 14 15 16 17 18 19 20 20 20 20 20 20 21 21 21 21 21 20 19 19 20
3 3 4 5 6 7 7 8 8 9 9 10 10 10 11 11 11 11 12 13 14 15 16 17 18 19 20 20 21 21 20 20 20 21 21 22 22 22 22 21 20 20 20
3 3 3 4 5 6 7 7 8 8 9 10 10 11 11 11 12 13 14 15 16 17 17 18 18 19 20 20 21 21 21 20 20 20 21 22 23 23 23 22 22 22 22
3 3 3 4 5 6 7 7 7 8 9 10 10 11 11 12 13 15 16 16 16 16 17 17 17 19 19 20 21 21 21 21 21 21 22 23 23 23 23 23 23 23 23
3 3 3 4 5 6 6 7 7 8 9 9 10 10 11 13 15 16 16 16 16 16 16 16 16 17 19 20 20 21 21 21 21 22 22 23 23 23 23 23 23 23 22
3 3 3 3 4 5 6 7 8 8 9 9 10 11 13 15 16 16 16 16 16 16 16 16 16 16 17 18 19 20 21 21 22 22 22 22 22 22 22 23 22 22 21
3 3 3 3 4 5 6 7 8 9 9 9 10 12 14 15 16 16 16 16 17 17 16 16 17 17 17 18 19 20 20 21 21 21 21 21 21 21 21 21 21 21 20
3 3 3 3 3 5 6 7 8 9 9 10 11 13 15 16 16 16 16 17 17 17 17 17 17 17 18 18 19 20 20 21 21 20 20 20 20 20 20 21 20 20 20